Regional Weather Roundup
Issued by NWS

Home | Current Version | Previous Version | Graphics & Text | Print | Product List | Glossary Off
Versions: 1 2 3 4 5 6 7 8 9 10 11 12 13 14 15 16 17 18 19 20 21 22 23 24 25 26 27 28 29 30 31 32 33 34 35 36 37 38 39 40 41 42 43 44 45 46 47 48 49 50

000
ASUS43 KTOP 201059
RWRKS

WEATHER ROUNDUP FOR KANSAS
NATIONAL WEATHER SERVICE GOODLAND KS
500 AM CST SAT JAN 20 2018

NOTE:  "FAIR" INDICATES FEW OR NO CLOUDS BELOW 12,000 FEET WITH NO
SIGNIFICANT WEATHER AND/OR OBSTRUCTIONS TO VISIBILITY.

KSZ001>006-013>018-027>032-041>047-201200-
NORTHWEST KANSAS

CITY           SKY/WX    TMP DP  RH WIND       PRES   REMARKS
GOODLAND       CLEAR     23  19  85 NW5       29.72F
HAYS           CLOUDY    21  14  74 SE7       29.72S
HILL CITY      CLOUDY    27  22  81 CALM      29.72S
RUSSELL        PTCLDY    31  22  69 S3        29.72
$$

KSZ061>065-074>080-084>089-201200-
SOUTHWEST KANSAS

CITY           SKY/WX    TMP DP  RH WIND       PRES   REMARKS
DODGE CITY     CLEAR     36  16  44 SW9       29.71S
GARDEN CITY    CLOUDY   N/A N/A N/A NW8       29.70F
GREAT BEND     CLOUDY    27  22  81 SE5       29.74R
LIBERAL        CLOUDY    30  15  53 CALM      29.71S
$$

KSZ066>073-081>083-090>101-201200-
SOUTHEAST KANSAS

CITY           SKY/WX    TMP DP  RH WIND       PRES   REMARKS
CHANUTE        CLOUDY    47  43  86 S16       29.88
COFFEYVILLE    CLOUDY    49  43  80 S14       29.89F
HUTCHINSON     CLOUDY    47  45  93 S16       29.77S
MEDICINE LODGE   N/A     36  36 100 E9        29.75F
NEWTON         CLOUDY    46  43  89 S21       29.79S
PARSONS        CLOUDY    48  44  86 S9        29.89F
WICHITA INTL   CLOUDY    49  46  90 S15G24    29.79F
WICHITA JABRA  CLOUDY    48  46  93 S16G26    29.80S
WICHITA MCCONL CLOUDY    49  45  87 SW16      29.80S
WINFIELD       CLOUDY    49  47  93 S15       29.83S
$$

KSZ007>012-019>026-033>040-048>060-102>105-201200-
NORTHEAST KANSAS

CITY           SKY/WX    TMP DP  RH WIND       PRES   REMARKS
CONCORDIA      CLOUDY    27  23  85 E5        29.76S
EMPORIA        CLOUDY    44  41  89 S8        29.83S
LAWRENCE       CLOUDY    43  40  89 S6        29.87R
MANHATTAN      CLOUDY    43  39  86 SW6       29.81S
OLATHE IND     CLOUDY    44  42  93 S15       29.87S
OLATHE EXE     CLOUDY    42  41  96 S12       29.87S
SALINA         CLOUDY    44  42  93 S16G22    29.77S
TOPEKA BILLARD CLOUDY    44  41  89 S6        29.85R
TOPEKA FORBES  CLOUDY    45  41  86 S10       29.84R
$$




USA.gov is the U.S. government's official web portal to all federal, state and local government web resources and services.